SCP
0 0 0 0 0 0 0 0 0 0 0 0 0 0 0 0 0 0 0 0 0 0 0 0 0 0 0 0 0 0 0 0 0 0 0 0 0 0 0 0 0 0 0
0 0 0 0 0 0 0 0 0 0 0 0 0 0 0 0 0 0 0 0 0 0 0 0 0 0 0 0 0 0 0 0 0 0 0 0 0 0 0 0 0 0 0
0 0 0 0 0 0 0 0 0 0 0 0 0 0 0 0 0 0 0 0 0 0 0 0 0 0 0 0 0 0 0 0 0 0 0 0 0 0 0 0 0 0 0
0 0 0 0 0 0 0 0 0 0 0 0 0 0 0 0 0 0 0 0 0 0 0 0 0 0 0 0 0 0 0 0 0 0 0 0 0 0 0 0 0 0 0
0 0 0 0 0 0 0 0 0 0 0 0 0 0 0 0 0 0 0 0 0 0 0 0 0 0 0 0 0 0 0 0 0 0 0 0 0 0 0 0 0 0 0
0 0 0 0 0 0 0 0 0 0 0 0 0 0 0 0 0 0 0 0 0 0 0 0 0 0 0 0 0 0 0 0 0 0 0 0 0 0 0 0 0 0 0
0 0 0 0 0 0 0 0 0 0 0 0 0 0 0 0 0 0 0 0 0 0 0 0 0 0 0 0 0 0 0 0 0 0 0 0 0 0 0 0 0 0 0
0 0 0 0 0 0 0 0 0 0 0 0 0 0 0 0 0 0 0 0 0 0 0 0 0 0 0 0 0 0 0 0 0 0 0 0 0 0 0 0 0 0 0
0 0 0 0 0 0 0 0 0 0 0 0 0 0 0 0 0 0 0 0 0 0 0 0 0 0 0 0 0 0 0 0 0 0 0 0 0 0 0 0 0 0 0
0 0 0 0 0 0 0 0 0 0 0 0 0 0 0 0 0 0 0 0 0 0 0 0 0 0 0 0 0 0 0 0 0 0 0 0 0 0 0 0 0 0 0
0 0 0 0 0 0 0 0 0 0 0 0 0 0 0 0 0 0 0 0 0 0 0 0 0 0 0 0 0 0 0 0 0 0 0 0 0 0 0 0 0 0 0
0 0 0 0 0 0 0 0 0 0 0 0 0 0 0 0 0 0 0 0 0 0 0 0 0 0 0 0 0 0 0 0 0 0 0 0 0 0 0 0 0 0 0
0 0 0 0 0 0 0 0 0 0 0 0 0 0 0 0 0 0 0 0 0 0 0 0 0 0 0 0 0 0 0 0 0 0 0 0 0 0 0 0 0 0 0
0 0 0 0 0 0 0 0 0 0 0 0 0 0 0 0 0 0 0 0 0 0 0 0 0 0 0 0 0 0 0 0 0 0 0 0 0 0 0 0 0 0 0
0 0 0 0 0 0 0 0 0 0 0 0 0 0 0 0 0 0 0 0 0 0 0 0 0 0 0 0 0 0 0 0 0 0 0 0 0 0 0 0 0 0 0
0 0 0 0 0 0 0 0 0 0 0 0 0 0 0 0 0 0 0 0 0 0 0 0 0 0 0 0 0 0 0 0 0 0 0 0 0 0 0 0 0 0 0
0 0 0 0 0 0 0 0 0 0 0 0 0 0 0 0 0 0 0 0 0 0 0 0 0 0 0 0 0 0 0 0 0 0 0 0 0 0 0 0 0 0 0
0 0 0 0 0 0 0 0 0 0 0 0 0 0 0 0 0 0 0 0 0 0 0 0 0 0 0 0 0 0 0 0 0 0 0 0 0 0 0 0 0 0 0
0 0 0 0 0 0 0 0 0 0 0 0 0 0 0 0 0 0 0 0 0 0 0 0 0 0 0 0 0 0 0 0 0 0 0 0 0 0 0 0 0 0 0
0 0 0 0 0 0 0 0 0 0 0 0 0 0 0 0 0 0 0 0 0 0 0 0 0 0 0 0 0 0 0 0 0 0 0 0 0 0 0 0 0 0 0
0 0 0 0 0 0 0 0 0 0 0 0 0 0 0 0 0 0 0 0 0 0 0 0 0 0 0 0 0 0 0 0 0 0 0 0 0 0 0 0 0 0 0
0 0 0 0 0 0 0 0 0 0 0 0 0 0 0 0 0 0 0 0 0 0 0 0 0 0 0 0 0 0 0 0 0 0 0 0 0 0 0 0 0 0 0
0 0 0 0 0 0 0 0 0 0 0 0 0 0 0 0 0 0 0 0 0 0 0 0 0 0 0 0 0 0 0 0 0 0 0 0 0 0 0 0 0 0 0
0 0 0 0 0 0 0 0 0 0 0 0 0 0 0 0 0 0 0 0 0 0 0 0 0 0 0 0 0 0 0 0 0 0 0 0 0 0 0 0 0 0 0
0 0 0 0 0 0 0 0 0 0 0 0 0 0 0 0 0 0 0 0 0 0 0 0 0 0 0 0 0 0 0 0 0 0 0 0 0 0 0 0 0 0 0
0 0 0 0 0 0 0 0 0 0 0 0 0 0 0 0 0 0 0 0 0 0 0 0 0 0 0 0 0 0 0 0 0 0 0 0 0 0 0 0 0 0 0
Wind_Speed
3 6 10 7 8 9 10 10 10 10 11 12 12 13 13 13 13 13 13 13 13 13 13 12 12 11 11 10 10 9 9 9 9 10 10 10 10 9 9 9 9 9 11
5 7 11 8 9 10 10 10 10 10 11 11 12 12 13 13 13 13 13 13 13 12 12 12 12 11 10 10 10 9 9 9 9 9 10 10 9 9 8 6 4 7 10
6 7 10 9 9 10 10 10 10 10 11 11 11 11 12 12 12 12 12 12 12 12 12 11 11 10 10 10 10 9 9 9 8 9 9 7 9 9 8 7 7 9 9
6 7 8 10 9 10 10 10 10 10 10 10 10 10 10 11 11 11 11 11 11 11 11 11 10 10 10 9 9 9 9 9 8 8 6 6 7 9 8 8 8 8 9
7 7 10 10 9 9 9 9 10 9 9 9 9 8 9 9 10 10 10 10 10 11 11 10 9 9 9 9 8 8 8 8 7 7 4 5 5 9 8 8 8 8 9
7 8 11 9 8 8 8 9 9 9 8 8 8 8 8 8 9 9 9 9 9 10 10 9 9 8 8 8 8 8 8 8 9 5 5 5 6 8 8 8 8 8 8
7 7 10 9 8 7 8 8 8 8 8 7 7 7 7 7 8 7 8 8 9 9 9 9 9 8 8 8 7 7 7 7 5 4 4 4 6 8 7 8 8 8 9
7 7 9 10 8 7 7 7 7 7 7 7 6 6 7 6 7 7 7 7 7 8 8 8 8 8 7 7 7 7 7 8 6 5 4 5 7 8 8 8 8 8 8
6 6 6 6 7 8 7 6 6 6 6 6 6 6 6 6 5 6 5 6 7 8 8 8 8 8 8 7 7 7 7 7 5 3 5 4 8 8 8 8 8 8 8
4 4 5 5 4 4 6 7 6 5 5 5 5 5 5 6 6 6 6 6 7 7 7 8 7 7 8 8 8 8 8 9 5 4 3 6 9 8 8 8 8 8 8
4 3 3 4 3 3 3 5 5 5 5 5 5 5 5 4 4 5 5 6 7 7 7 7 7 8 8 9 9 9 9 5 5 3 3 7 9 9 8 8 9 9 8
3 2 3 3 3 2 2 3 2 2 3 2 2 3 2 2 2 2 5 6 7 7 8 8 8 9 9 7 9 10 5 5 4 3 4 8 8 8 8 8 9 9 8
2 2 2 2 2 1 1 1 1 1 1 2 2 3 2 2 2 2 2 5 6 7 6 8 8 5 5 3 4 4 4 4 3 2 5 9 8 8 8 8 9 10 9
2 2 2 2 2 1 1 1 1 1 1 1 2 1 1 1 1 1 1 2 2 2 2 2 2 3 4 4 4 4 4 3 3 2 4 10 9 9 9 9 10 10 10
3 2 2 1 1 1 1 1 1 1 1 1 1 1 0 0 0 1 1 1 1 2 3 3 3 3 4 4 4 5 4 4 4 3 3 9 10 9 9 9 9 9 9
3 2 2 1 1 1 1 0 0 1 1 0 1 1 0 0 0 0 1 1 1 1 1 2 3 3 3 3 4 4 4 4 3 4 4 7 11 10 9 9 9 9 10
3 2 1 2 1 1 0 0 1 1 1 0 1 1 0 1 1 1 1 1 1 1 2 2 2 2 3 3 3 3 3 4 3 3 3 3 6 11 11 10 10 9 10
2 2 1 0 1 1 1 0 0 0 0 0 0 1 0 1 1 1 1 1 1 1 2 2 3 2 2 2 2 2 2 3 4 4 4 4 3 4 9 11 9 9 9
2 2 1 0 0 1 1 1 0 1 1 1 0 0 0 1 1 2 1 1 2 2 2 2 1 1 1 2 2 2 2 2 2 3 3 3 3 4 4 8 10 8 9
3 2 1 1 0 0 1 1 1 1 1 1 0 1 1 1 1 1 2 2 2 2 2 1 1 1 1 1 1 1 1 2 2 1 2 2 2 3 3 3 5 6 9
4 3 2 1 1 1 0 1 1 1 0 1 0 1 1 1 1 1 1 1 2 2 1 1 2 2 1 1 1 1 1 2 1 1 1 1 2 2 2 2 2 2 4
5 4 3 3 2 2 1 0 0 0 0 1 1 1 0 1 1 1 1 1 2 1 2 2 2 1 1 2 1 1 2 3 2 1 2 2 2 2 2 3 2 3 3
4 4 3 3 3 2 1 1 1 1 1 0 0 1 0 1 1 1 1 1 1 2 2 3 3 3 1 1 1 1 1 0 0 2 2 1 1 1 2 2 3 3 3
4 4 3 3 3 3 2 1 1 1 1 0 0 1 1 1 1 1 1 1 2 2 1 3 3 2 2 2 2 1 1 1 1 1 2 2 2 2 2 2 2 3 3
3 3 3 3 3 3 3 2 2 1 1 0 0 1 1 1 1 1 1 1 1 2 1 2 2 3 3 3 2 2 2 2 3 2 2 1 2 2 2 3 2 2 2
3 3 3 3 3 3 3 2 2 1 1 1 1 1 1 1 1 1 1 1 1 1 1 2 2 3 2 2 2 2 2 2 2 2 2 3 2 2 1 1 2 2 2
Wind_Direction
94 114 124 129 130 124 122 120 121 124 128 132 135 138 139 138 139 140 140 142 142 142 141 139 141 140 139 137 135 129 130 133 132 130 130 131 130 131 133 140 151 129 125
93 110 125 126 129 126 124 122 121 125 129 129 134 138 141 141 141 143 145 145 144 145 144 142 140 141 143 143 139 136 135 135 137 138 142 141 136 138 140 140 123 115 133
101 112 126 120 123 125 124 125 125 122 126 129 133 137 140 142 144 144 147 147 148 148 147 145 142 144 145 143 142 140 138 137 141 153 172 154 139 143 143 135 123 130 137
102 110 109 114 118 121 121 125 127 126 128 127 128 135 141 144 145 146 146 147 151 152 150 148 146 146 145 145 145 145 145 145 154 181 178 147 140 137 144 140 137 138 138
104 109 110 117 116 117 120 121 124 126 129 130 132 135 142 146 148 149 148 147 149 153 151 152 152 152 149 147 149 152 152 155 173 196 145 141 133 136 150 150 148 145 143
112 113 108 113 112 114 118 120 121 125 127 133 137 136 139 144 148 150 150 150 150 150 153 155 158 160 157 153 153 157 161 173 199 165 158 157 138 143 157 159 158 153 148
104 106 109 110 110 112 114 119 123 127 130 134 134 137 140 145 147 148 149 151 152 152 156 158 160 161 159 159 159 162 169 196 213 161 166 151 128 144 161 163 161 158 156
97 101 108 120 119 115 114 117 123 130 136 142 138 138 141 143 147 150 152 155 155 153 158 163 164 164 162 164 168 171 180 218 197 174 165 140 131 158 170 169 169 168 166
92 97 104 117 127 128 124 122 121 128 134 142 141 140 142 144 151 151 156 160 163 163 168 171 171 170 168 172 175 180 190 225 222 176 170 148 145 168 179 178 177 175 172
87 94 106 109 112 131 129 128 128 127 131 144 147 144 146 158 166 169 172 165 165 165 174 177 172 172 173 179 185 192 203 220 210 181 176 142 155 177 185 184 181 177 180
90 97 109 112 110 119 124 127 144 147 148 164 160 164 184 174 166 173 153 163 170 173 179 177 175 179 185 187 194 204 215 217 195 198 175 138 168 186 192 190 185 185 187
119 114 106 104 99 111 115 121 137 141 135 149 137 157 166 148 161 163 152 174 177 180 186 182 187 192 206 193 189 203 213 212 205 196 152 152 176 191 193 193 192 190 193
134 121 103 100 100 98 95 110 116 122 122 143 142 160 159 181 170 174 169 170 176 186 189 178 193 199 199 194 204 199 208 214 208 199 155 162 180 193 196 200 197 197 196
141 130 111 95 86 70 57 103 130 128 130 126 131 165 153 171 183 143 171 154 171 167 166 186 185 195 203 201 208 212 211 214 209 194 153 164 183 198 203 206 206 203 200
143 140 122 105 84 92 82 314 112 106 122 120 110 138 174 179 177 126 140 160 185 159 170 189 192 192 204 206 211 211 214 213 213 205 162 165 183 194 203 209 208 204 203
141 137 128 139 135 130 141 197 279 162 149 151 132 97 252 269 109 193 182 198 198 188 187 197 193 199 210 214 218 216 225 217 206 211 202 172 182 190 197 205 211 211 211
142 137 134 154 139 145 181 225 205 186 158 150 129 131 209 291 320 279 216 213 200 182 185 192 197 202 208 215 218 218 219 222 215 214 219 211 187 187 195 204 209 212 213
150 152 172 128 136 159 167 289 310 12 63 41 81 138 170 279 265 254 227 213 189 203 195 189 203 198 207 228 222 233 224 206 209 212 212 207 204 192 187 193 203 211 217
166 171 181 156 184 202 181 183 149 72 31 4 27 15 355 273 246 239 225 194 217 204 207 212 170 210 220 233 210 201 218 211 201 199 196 206 196 206 194 176 190 205 216
167 169 180 174 167 226 185 170 158 112 87 59 30 39 348 302 264 250 213 183 221 206 204 193 192 205 231 227 219 185 205 198 189 185 205 196 194 206 208 192 188 193 206
174 174 176 178 147 185 191 208 172 143 83 76 61 56 355 322 291 255 254 178 222 202 206 199 204 193 189 157 181 174 176 177 172 183 202 194 186 193 205 199 211 215 195
186 189 184 187 178 194 173 199 198 240 130 98 17 63 351 347 312 240 235 224 215 189 186 194 196 218 197 175 217 216 193 174 174 180 186 188 206 205 205 198 201 211 232
193 194 193 192 185 195 201 191 153 171 227 150 135 83 29 9 337 325 294 257 226 225 195 200 202 206 211 203 215 263 263 204 98 164 181 191 205 228 229 188 202 209 218
191 191 192 188 186 186 193 201 203 234 277 341 328 60 27 20 346 321 290 262 253 252 209 223 208 215 212 211 195 240 306 355 256 198 192 180 190 219 238 239 225 208 214
178 179 175 177 183 179 189 191 220 253 273 304 345 41 317 43 6 356 331 300 268 259 245 250 228 227 223 231 228 202 194 203 236 244 238 227 213 216 217 233 239 236 216
155 156 158 161 172 174 177 180 203 216 256 303 312 350 328 47 37 31 347 321 291 284 253 243 240 224 231 241 248 236 228 229 225 238 245 245 255 255 231 227 237 234 222